Location: Newark
(48.4472°N, 1.4892°E)
Time: 14:12:41
(UTC+00:00)

Transit 4A - Pass Details

Date: 24 January 2021
Orbit: 866 x 978 km, 66.8° (Epoch: 01 March)

Event Time Altitude Azimuth Distance (km) Brightness Sun altitude
Rises 19:24:44 0° 218° (SW) 3,664 11.5 -27.0°
Reaches altitude 10° 19:27:18 10° 220° (SW) 2,723 10.8 -27.4°
Maximum altitude 19:33:42 76° 307° (NW) 1,007 8.0 -28.5°
Enters shadow 19:35:08 55° 16° (NNE) 1,157 8.2 -28.7°
